Volver al catálogo

FENGYUN 1C DEB

ActivoSSO
NORAD 35135·DEBRIS·🇨🇳 China

Lanzado May 10, 1999 desde Taiyuan Satellite Launch Center

Loading…

Próximos Pases (próximas 24 horas)

TLE

ActualizadoSource: Space-Track

Época: Sep 14, 2026, 11:35 UTC

1 35135U 99025DLP 26257.48266787  .00000537  00000-0  24870-3 0  9991
2 35135  98.5637 263.6991 0080806 201.7769 157.9968 14.23049102917454

Sigue FENGYUN 1C DEB en tiempo real con AllMySat

Download on the App Store